Location: Paris
(18.5000°N, 73.9167°W)
Time: 03:28:14
(UTC+00:00)

Meteor 2-11 Rocket - Pass Details

Date: 18 April 2024
Orbit: 938 x 957 km, 82.5° (Epoch: 24 May)

Event Time Altitude Azimuth Distance (km) Brightness Sun altitude
Rises 23:29:05 0° 359° (N) 3,598 7.7 -4.4°
Reaches altitude 10° 23:31:35 10° 2° (N) 2,651 7.0 -5.0°
Maximum altitude 23:37:36 68° 85° (E) 1,003 4.4 -6.4°
Drops below altitude 10° 23:43:36 10° 168° (SSE) 2,642 6.5 -7.7°
Sets 23:46:05 0° 170° (S) 3,585 7.2 -8.3°
